Meteo orario Abohar

Oggi, 7 Marzo, Domenica

Tempo Temperatura Precipitazioni Vento Pressione Umidità
00:00 +20°C° 0 mm 4 m/s 738 mm Hg 27%
01:00 +20°C° 0 mm 4 m/s 738 mm Hg 23%
02:00 +21°C° 0 mm 5 m/s 738 mm Hg 20%
03:00 +21°C° 0 mm 5 m/s 738 mm Hg 19%
04:00 +21°C° 0 mm 4 m/s 737 mm Hg 19%
05:00 +21°C° 0 mm 4 m/s 737 mm Hg 19%
06:00 +22°C° 0 mm 5 m/s 738 mm Hg 18%
07:00 +23°C° 0 mm 5 m/s 738 mm Hg 17%
08:00 +25°C° 0 mm 5 m/s 738 mm Hg 17%
09:00 +28°C° 0 mm 5 m/s 738 mm Hg 17%
10:00 +33°C° 0 mm 5 m/s 739 mm Hg 17%
11:00 +36°C° 0 mm 5 m/s 739 mm Hg 18%
12:00 +37°C° 0 mm 5 m/s 738 mm Hg 15%
13:00 +40°C° 0 mm 5 m/s 737 mm Hg 12%
14:00 +41°C° 0 mm 5 m/s 737 mm Hg 10%
15:00 +41°C° 0 mm 5 m/s 736 mm Hg 9%
16:00 +40°C° 0 mm 5 m/s 736 mm Hg 9%
17:00 +39°C° 0 mm 5 m/s 735 mm Hg 9%
18:00 +35°C° 0 mm 5 m/s 736 mm Hg 11%
19:00 +30°C° 0 mm 4 m/s 737 mm Hg 14%
20:00 +27°C° 0 mm 4 m/s 737 mm Hg 16%
21:00 +25°C° 0 mm 4 m/s 738 mm Hg 18%
22:00 +24°C° 0 mm 3 m/s 738 mm Hg 20%
23:00 +22°C° 0 mm 3 m/s 738 mm Hg 22%

Domani, 8 Marzo, Lunedi

Tempo Temperatura Precipitazioni Vento Pressione Umidità
00:00 +21°C° 0 mm 3 m/s 738 mm Hg 25%
01:00 +20°C° 0 mm 3 m/s 738 mm Hg 28%
02:00 +19°C° 0 mm 3 m/s 738 mm Hg 31%
03:00 +18°C° 0 mm 3 m/s 738 mm Hg 35%
04:00 +17°C° 0 mm 2 m/s 738 mm Hg 39%
05:00 +16°C° 0 mm 2 m/s 738 mm Hg 43%
06:00 +18°C° 0 mm 2 m/s 739 mm Hg 39%
07:00 +20°C° 0 mm 2 m/s 740 mm Hg 34%
08:00 +23°C° 0 mm 2 m/s 741 mm Hg 30%
09:00 +27°C° 0 mm 2 m/s 741 mm Hg 24%
10:00 +31°C° 0 mm 2 m/s 741 mm Hg 17%
11:00 +36°C° 0 mm 2 m/s 741 mm Hg 11%
12:00 +38°C° 0 mm 2 m/s 741 mm Hg 9%
13:00 +39°C° 0 mm 1 m/s 740 mm Hg 8%
14:00 +38°C° 0 mm 0 m/s 740 mm Hg 6%
15:00 +37°C° 0 mm 0 m/s 739 mm Hg 7%
16:00 +39°C° 0 mm 1 m/s 739 mm Hg 7%
17:00 +37°C° 0 mm 1 m/s 738 mm Hg 7%
18:00 +33°C° 0 mm 1 m/s 739 mm Hg 10%
19:00 +30°C° 0 mm 1 m/s 739 mm Hg 13%
20:00 +26°C° 0 mm 1 m/s 739 mm Hg 16%
21:00 +25°C° 0 mm 2 m/s 739 mm Hg 17%
22:00 +24°C° 0 mm 2 m/s 740 mm Hg 18%
23:00 +22°C° 0 mm 3 m/s 740 mm Hg 18%

Dopodomani, 9 Marzo, Martedi

Tempo Temperatura Precipitazioni Vento Pressione Umidità
00:00 +21°C° 0 mm 3 m/s 740 mm Hg 20%
01:00 +20°C° 0 mm 3 m/s 740 mm Hg 22%
02:00 +19°C° 0 mm 3 m/s 739 mm Hg 23%
03:00 +19°C° 0 mm 3 m/s 739 mm Hg 25%
04:00 +18°C° 0 mm 3 m/s 739 mm Hg 27%
05:00 +18°C° 0 mm 3 m/s 739 mm Hg 29%
06:00 +19°C° 0 mm 3 m/s 740 mm Hg 27%
07:00 +21°C° 0 mm 2 m/s 741 mm Hg 25%
08:00 +23°C° 0 mm 2 m/s 741 mm Hg 24%
09:00 +27°C° 0 mm 2 m/s 741 mm Hg 20%
10:00 +31°C° 0 mm 2 m/s 742 mm Hg 16%
11:00 +35°C° 0 mm 1 m/s 742 mm Hg 12%
12:00 +37°C° 0 mm 1 m/s 741 mm Hg 12%
13:00 +39°C° 0 mm 1 m/s 740 mm Hg 11%
14:00 +40°C° 0 mm 1 m/s 739 mm Hg 10%
15:00 +39°C° 0 mm 1 m/s 739 mm Hg 11%
16:00 +39°C° 0 mm 1 m/s 738 mm Hg 11%
17:00 +37°C° 0 mm 1 m/s 738 mm Hg 12%
18:00 +34°C° 0 mm 1 m/s 738 mm Hg 17%
19:00 +30°C° 0 mm 1 m/s 739 mm Hg 22%
20:00 +27°C° 0 mm 1 m/s 739 mm Hg 26%
21:00 +26°C° 0 mm 1 m/s 739 mm Hg 29%
22:00 +24°C° 0 mm 1 m/s 739 mm Hg 31%
23:00 +23°C° 0 mm 1 m/s 739 mm Hg 34%

10 Marzo, Mercoledi

Tempo Temperatura Precipitazioni Vento Pressione Umidità
00:00 +23°C° 0 mm 1 m/s 739 mm Hg 34%
01:00 +21°C° 0 mm 2 m/s 739 mm Hg 35%
02:00 +20°C° 0 mm 2 m/s 739 mm Hg 36%
03:00 +20°C° 0 mm 2 m/s 739 mm Hg 40%
04:00 +19°C° 0 mm 2 m/s 739 mm Hg 43%
05:00 +19°C° 0 mm 2 m/s 738 mm Hg 47%
06:00 +20°C° 0 mm 2 m/s 739 mm Hg 42%
07:00 +23°C° 0 mm 2 m/s 740 mm Hg 38%
08:00 +24°C° 0 mm 2 m/s 740 mm Hg 33%
09:00 +28°C° 0 mm 2 m/s 740 mm Hg 27%
10:00 +32°C° 0 mm 2 m/s 741 mm Hg 20%
11:00 +37°C° 0 mm 2 m/s 741 mm Hg 13%
12:00 +37°C° 0 mm 2 m/s 740 mm Hg 12%
13:00 +38°C° 0 mm 2 m/s 739 mm Hg 10%
14:00 +39°C° 0 mm 2 m/s 738 mm Hg 8%
15:00 +39°C° 0 mm 2 m/s 738 mm Hg 8%
16:00 +38°C° 0 mm 2 m/s 737 mm Hg 8%
17:00 +38°C° 0 mm 2 m/s 737 mm Hg 8%
18:00 +34°C° 0 mm 2 m/s 737 mm Hg 11%
19:00 +29°C° 0 mm 1 m/s 738 mm Hg 14%
20:00 +25°C° 0 mm 1 m/s 738 mm Hg 17%
21:00 +24°C° 0 mm 2 m/s 738 mm Hg 24%
22:00 +22°C° 0 mm 3 m/s 739 mm Hg 30%
23:00 +21°C° 0 mm 3 m/s 739 mm Hg 37%

11 Marzo, Giovedi

Tempo Temperatura Precipitazioni Vento Pressione Umidità
00:00 +20°C° 0 mm 3 m/s 739 mm Hg 39%
01:00 +20°C° 0 mm 3 m/s 739 mm Hg 42%
02:00 +19°C° 0 mm 3 m/s 738 mm Hg 45%
03:00 +19°C° 0 mm 3 m/s 738 mm Hg 44%
04:00 +18°C° 0 mm 3 m/s 738 mm Hg 44%
05:00 +18°C° 0 mm 3 m/s 738 mm Hg 43%
06:00 +20°C° 0 mm 2 m/s 739 mm Hg 36%
07:00 +23°C° 0 mm 2 m/s 740 mm Hg 29%
08:00 +24°C° 0 mm 2 m/s 740 mm Hg 22%
09:00 +28°C° 0 mm 2 m/s 740 mm Hg 17%
10:00 +33°C° 0 mm 3 m/s 740 mm Hg 12%
11:00 +38°C° 0 mm 3 m/s 741 mm Hg 7%
12:00 +38°C° 0 mm 4 m/s 740 mm Hg 6%
13:00 +40°C° 0 mm 4 m/s 739 mm Hg 6%
14:00 +41°C° 0 mm 5 m/s 738 mm Hg 5%
15:00 +41°C° 0 mm 5 m/s 738 mm Hg 6%
16:00 +40°C° 0 mm 5 m/s 737 mm Hg 7%
17:00 +39°C° 0 mm 5 m/s 737 mm Hg 7%
18:00 +35°C° 0 mm 4 m/s 737 mm Hg 10%
19:00 +32°C° 0 mm 4 m/s 738 mm Hg 12%
20:00 +27°C° 0 mm 3 m/s 738 mm Hg 15%
21:00 +27°C° 0 mm 3 m/s 738 mm Hg 16%
22:00 +26°C° 0 mm 3 m/s 739 mm Hg 17%
23:00 +25°C° 0 mm 3 m/s 739 mm Hg 18%

12 Marzo, Venerdi

Tempo Temperatura Precipitazioni Vento Pressione Umidità
00:00 +24°C° 0 mm 2 m/s 739 mm Hg 19%
01:00 +23°C° 0 mm 2 m/s 739 mm Hg 21%
02:00 +21°C° 0 mm 2 m/s 739 mm Hg 22%
03:00 +20°C° 0 mm 2 m/s 739 mm Hg 23%
04:00 +20°C° 0 mm 2 m/s 739 mm Hg 24%
05:00 +19°C° 0 mm 2 m/s 739 mm Hg 25%
06:00 +21°C° 0 mm 2 m/s 740 mm Hg 24%
07:00 +24°C° 0 mm 3 m/s 741 mm Hg 23%
08:00 +26°C° 0 mm 3 m/s 741 mm Hg 21%
09:00 +29°C° 0 mm 3 m/s 742 mm Hg 20%
10:00 +33°C° 0 mm 3 m/s 742 mm Hg 19%
11:00 +37°C° 0 mm 3 m/s 742 mm Hg 17%
12:00 +38°C° 0 mm 3 m/s 742 mm Hg 15%
13:00 +39°C° 0 mm 3 m/s 741 mm Hg 14%
14:00 +40°C° 0 mm 3 m/s 740 mm Hg 12%
15:00 +40°C° 0 mm 4 m/s 740 mm Hg 12%
16:00 +40°C° 0 mm 4 m/s 739 mm Hg 11%
17:00 +38°C° 0 mm 4 m/s 739 mm Hg 11%
18:00 +35°C° 0 mm 3 m/s 739 mm Hg 14%
19:00 +31°C° 0 mm 3 m/s 740 mm Hg 16%
20:00 +27°C° 0 mm 2 m/s 740 mm Hg 19%
21:00 +26°C° 0 mm 1 m/s 741 mm Hg 21%
22:00 +25°C° 0 mm 1 m/s 741 mm Hg 22%
23:00 +21°C° 0 mm 0 m/s 741 mm Hg 23%
Mostrare altro

Abbiamo bisogno del tuo consenso

Meteoprog e i nostri fornitori di servizi possono memorizzare e accedere a dati personali come cookie, identificatori di dispositivi o altre tecnologie simili sul tuo dispositivo e possono elaborare tali dati per personalizzare i contenuti e gli annunci, nonché fornire funzionalità dei social media e analizzarne il traffico.

  • Archiviare e/o accedere alle informazioni sul tuo dispositivo

    Cookie, identificatori di dispositivi o altre informazioni possono essere memorizzati o resi accessibili sul tuo dispositivo per le finalità sopra indicate.

  • Annunci e contenuti personalizzati, misurazione di annunci e contenuti, approfondimenti sul pubblico e sviluppo di prodotti

    Gli annunci e i contenuti possono essere personalizzati in base a un profilo. È possibile aggiungere più dati per personalizzare meglio annunci e contenuti. È possibile misurare il rendimento degli annunci e dei contenuti. È possibile ricavare informazioni sul pubblico che ha visto gli annunci e i contenuti. Tali dati possono essere utilizzati per sviluppare o migliorare l'esperienza, i sistemi e il software dell'utente.

Cliccando su “Accetto”, acconsenti all'uso di cookie, identificatori di dispositivo, web beacon o altre tecnologie simili. Puoi modificare le impostazioni nel browser del tuo dispositivo.

Per determinati scopi, è possibile fare affidamento su interessi legali, piuttosto che sul consenso. Puoi approfondire questo argomento consultando la nostra Informativa sulla privacy e sui cookie.